STARLINK-11293, 61249

Orbit data source: Space-Track

STARLINK-11293, 61249 is a payload satellite owned by SpaceX/Seattle (US) in LEO that was launched on Wed, 25 Sep 2024 UTC via an FALCON 9 launch vehicle from the Air Force Western Test Range (AFWTR). Payload-class satellites include a variety of spacecraft equipped with specific instruments for various scientific and technological missions. These include communications satellites like Starlink; space stations such as the ISS; scientific satellites like the Hubble; Earth observation satellites from companies like Planet Labs, Umbra, and HawkEye 360; GPS; miniature CubeSats for education and research; and military/defense satellites.

Loading next visibility...
Identifier
61249, 2024-175G
Orbit
LEO
Country
Flag of USUS
Related business
Manufacturer
SpaceX/Seattle
Mission
Operational Commercial Communications
Bus & Motor
STARLINK V2MD, Unknown motor
Mass
960 kg wet, ~910 kg dry
Launch date (UTC)
2024-09-25 (1 year ago)
Launch vehicle
FALCON 9
Launch site
Air Force Western Test Range (AFWTR)
Object type
Payload
Rocket body
Debris
Shape & HBR
Box + 2 Pan, 18.1 m
Radar Cross Section
36.964 m², Large (>1 m²)

Expand to show TLE details & history
Last TLE update: 23 hours ago

TLE from 23 hours ago
0 STARLINK-11293
1 61249U 24175G   25350.04645501  .00003295  00000-0  32060-4 0  9995
2 61249  53.1609 108.2822 0001386  71.6846 288.4322 15.69697106 70232
Epoch: 2025-12-16T01:06Z
TLE epoch observation values (Epoch: 2025-12-16T01:06:53.712Z)
Latitude
-0.00009°
Longitude
6.62204°
Altitude
360.384 km
Speed
7.694 km/s
True Right ascension
07h 13m 07s
True Declination
0° 00' 00"
Sunlit
Object was in full shadow at epoch
Visualization orbit readout
Latitude
Unknown
Longitude
Unknown
Altitude
Unknown
Speed
Unknown
Apparent Right ascension
Unknown
Apparent Declination
Unknown
Sunlit
N/A
Visualization observer readout
Local Sidereal Time
22:49:19
Azimuth
Unknown
Elevation
Unknown
Doppler factor
Unknown
Orbital elements
Apogee altitude
360.958 km
Perigee altitude
359.09 km
Semi-major axis
6,738.161 km
Eccentricity
0.00014
Inclination
53.1609°
RAAN
108.2822°
Arg. of periapsis
71.6846°
True anomaly
288.41713°
Mean anomaly
288.4322°
Eccentric anomaly
288.42467°
Mean motion
3.92402 °/min
Orbital period
91.74 mins
BSTAR
0.00003206
Loading maneuver chart data...
Computing Atmospheric mass density...
Loading historical data...
Loading historical data...
Loading historical data...
Loading historical data...
Loading historical data...
Loading historical data...
Loading historical data...

Documentation

Showing up to 5 results
|